Port Isabel, TX

12:33 AM CST on January 23, 2018 (GMT -0600)
Port Isabel-Cameron County

Weather History for KPIL - April, 2014

Change the Weather History Date:

Monday, April 7, 2014

  Actual Average (KBRO) Record (KBRO)
Temperature  
Mean Temperature 64 °F -  
Max Temperature 71 °F 80 °F 96 °F (1919)
Min Temperature 57 °F 63 °F 42 °F (2007)
Degree Days  
Heating Degree Days 1    
Growing Degree Days 14 (Base 50)    
Moisture  
Dew Point 58 °F    
Average Humidity 80    
Maximum Humidity 90    
Minimum Humidity 64    
Precipitation  
Precipitation 0.00 in - - ()
Sea Level Pressure  
Sea Level Pressure 29.86 in    
Wind  
Wind Speed 10 mph (North)    
Max Wind Speed 14 mph    
Max Gust Speed 20 mph    
Visibility 9 miles    
Events      
Averages and records for this station are not official NWS values.
T = Trace of Precipitation, MM = Missing Value Source: NWS Daily Summary

Daily Weather History Graph

Daily Weather History Graph

Search for Another Location

Airport or City:

Trip Planner

Search our weather history database for the weather conditions in past years. The results will help you decide how hot, cold, wet, or windy it might be!

Date:

Astronomy

Apr. 07, 2014 Rise Set
Actual Time 7:14 AM CDT 7:49 PM CDT
Civil Twilight 6:50 AM CDT 8:12 PM CDT
Nautical Twilight 6:23 AM CDT 8:39 PM CDT
Astronomical Twilight 5:55 AM CDT 9:07 PM CDT
Moon 1:25 PM CDT (4/7) 2:11 AM CDT (4/7)
Length of Visible Light 13h 21m
Length of Day
12h 35m
First Quarter, 53% of the Moon is Illuminated
Apr 7
First Quarter
Apr 15
Full
Apr 22
Last Quarter
Apr 29
New
May 6
First Quarter

Hourly Weather History & Observations

Time (CDT) Temp. Dew Point Humidity Pressure Visibility Wind Dir Wind Speed Gust Speed Precip Events Conditions
12:08 AM 66.2 °F 60.8 °F 83% 29.78 in 10.0 mi North 11.5 mph - N/A   Scattered Clouds
12:53 AM 64.9 °F 60.1 °F 84% 29.78 in 10.0 mi North 11.5 mph - N/A   Clear
1:53 AM 64.0 °F 59.0 °F 84% 29.77 in 10.0 mi NNE 6.9 mph - N/A   Clear
2:53 AM 63.0 °F 59.0 °F 87% 29.79 in 10.0 mi North 9.2 mph - N/A   Partly Cloudy
3:49 AM 62.6 °F 59.0 °F 88% 29.80 in 10.0 mi North 11.5 mph - N/A   Mostly Cloudy
3:53 AM 63.0 °F 59.0 °F 87% 29.80 in 10.0 mi North 12.7 mph - N/A   Mostly Cloudy
4:53 AM 62.1 °F 57.9 °F 86% 29.78 in 9.0 mi North 10.4 mph - N/A   Overcast
5:10 AM 62.6 °F 57.2 °F 82% 29.79 in 10.0 mi North 13.8 mph 19.6 mph N/A   Overcast
5:53 AM 61.0 °F 57.9 °F 90% 29.80 in 10.0 mi North 8.1 mph - N/A   Overcast
6:40 AM 60.8 °F 57.2 °F 88% 29.81 in 9.0 mi North 3.5 mph - N/A   Overcast
6:50 AM 60.8 °F 57.2 °F 88% 29.81 in 9.0 mi NW 6.9 mph - N/A   Overcast
6:53 AM 60.1 °F 57.0 °F 90% 29.81 in 9.0 mi NW 6.9 mph - N/A   Overcast
7:10 AM 60.8 °F 55.4 °F 82% 29.82 in 9.0 mi NW 6.9 mph - N/A   Overcast
7:17 AM 59.0 °F 55.4 °F 88% 29.82 in 9.0 mi NW 9.2 mph - N/A   Overcast
7:53 AM 57.9 °F 54.0 °F 87% 29.83 in 7.0 mi NW 10.4 mph - N/A   Mostly Cloudy
8:10 AM 57.2 °F 53.6 °F 88% 29.85 in 7.0 mi NW 10.4 mph - N/A   Mostly Cloudy
8:19 AM 59.0 °F 53.6 °F 82% 29.86 in 7.0 mi NW 8.1 mph - N/A   Mostly Cloudy
8:53 AM 57.9 °F 54.0 °F 87% 29.87 in 7.0 mi NW 9.2 mph - N/A   Overcast
9:53 AM 60.1 °F 55.9 °F 86% 29.89 in 6.0 mi NNW 6.9 mph - N/A   Overcast
10:53 AM 64.0 °F 55.9 °F 75% 29.90 in 8.0 mi NNE 9.2 mph - N/A   Mostly Cloudy
11:19 AM 64.4 °F 57.2 °F 77% 29.91 in 8.0 mi NNE 8.1 mph - N/A   Partly Cloudy
11:53 AM 66.0 °F 57.0 °F 73% 29.91 in 8.0 mi NNE 6.9 mph - N/A   Scattered Clouds
12:53 PM 69.1 °F 59.0 °F 70% 29.90 in 9.0 mi NE 11.5 mph 18.4 mph N/A   Scattered Clouds
1:18 PM 69.8 °F 59.0 °F 68% 29.90 in 9.0 mi NNE 9.2 mph - N/A   Mostly Cloudy
1:27 PM 69.8 °F 59.0 °F 68% 29.89 in 9.0 mi NNE 11.5 mph 17.3 mph N/A   Mostly Cloudy
1:53 PM 69.1 °F 57.9 °F 68% 29.88 in 9.0 mi NE 11.5 mph - N/A   Mostly Cloudy
2:04 PM 69.8 °F 57.2 °F 64% 29.88 in 9.0 mi NNE 10.4 mph 18.4 mph N/A   Mostly Cloudy
2:30 PM 69.8 °F 57.2 °F 64% 29.87 in 9.0 mi ENE 10.4 mph 18.4 mph N/A   Scattered Clouds
3:53 PM 70.0 °F 60.1 °F 71% 29.84 in 9.0 mi East 10.4 mph - N/A   Scattered Clouds
4:53 PM 71.1 °F 60.1 °F 68% 29.83 in 9.0 mi NE 10.4 mph 16.1 mph N/A   Clear
5:53 PM 70.0 °F 60.1 °F 71% 29.84 in 9.0 mi NE 12.7 mph 19.6 mph N/A   Partly Cloudy
6:53 PM 68.0 °F 60.1 °F 76% 29.85 in 9.0 mi ENE 9.2 mph - N/A   Clear
7:53 PM 66.0 °F 60.1 °F 81% 29.87 in 9.0 mi East 9.2 mph - N/A   Clear
8:53 PM 66.0 °F 61.0 °F 84% 29.91 in 9.0 mi East 6.9 mph - N/A   Clear
9:53 PM 64.9 °F 61.0 °F 87% 29.96 in 8.0 mi NNE 8.1 mph - N/A   Mostly Cloudy
10:53 PM 66.0 °F 62.1 °F 87% 30.02 in 8.0 mi NE 4.6 mph - N/A   Scattered Clouds
11:53 PM 64.9 °F 61.0 °F 87% 30.04 in 7.0 mi NNW 3.5 mph - N/A   Clear